Regional Weather Roundup
Issued by NWS Newport/Morehead, NC

Current Version | Previous Version | Text Only | Print | Product List | Glossary On
Versions: 1 2 3 4 5 6 7 8 9 10 11 12 13 14 15 16 17 18 19 20 21 22 23 24 25 26 27 28 29 30 31 32 33 34 35 36 37 38 39 40 41 42 43 44 45 46 47 48 49 50
000
ASUS42 KMHX 290922
RWRMHX
WEATHER ROUNDUP FOR EASTERN NORTH CAROLINA
NATIONAL WEATHER SERVICE NEWPORT/MOREHEAD CITY NC
500 AM EDT FRI AUG 29 2014

NOTE: "FAIR" INDICATES FEW OR NO CLOUDS BELOW 12,000 FEET
WITH NO SIGNIFICANT WEATHER AND/OR OBSTRUCTIONS TO VISIBILITY

NCZ015>017-031-032-045>047-102-103-291000-
NORTH COAST

CITY           SKY/WX    TMP DP  RH WIND       PRES   REMARKS
EDENTON        RAIN      73  72  94 N16       30.07R
ELIZABETH CITY LGT RAIN  75  70  84 N6        30.06R
KITTY HAWK     CLOUDY    75  72  89 E5        30.04S
MANTEO         DRIZZLE   74  72  92 NE6       30.05R

$$

NCZ045>047-081-094-103-104-291000-
CENTRAL COAST

CITY           SKY/WX    TMP DP  RH WIND       PRES   REMARKS
FRISCO         CLOUDY    78  75  90 S3        30.03S
SWANQUARTER      N/A     77 N/A N/A W2        30.00S

$$

NCZ095-097-098-100-101-291000-
SOUTHERN COAST

CITY           SKY/WX    TMP DP  RH WIND       PRES   REMARKS
BEAUFORT       CLEAR     77  73  87 SW3       30.03S
CEDAR ISLAND     N/A     77 N/A N/A SW3       30.09R
JACKSONVILLE   CLEAR     72  69  90 CALM      30.03S
NEWPORT        NOT AVBL
PINEY ISLAND   MOSUNNY   77  73  87 SW7       30.03R
WILMINGTON     MOCLDY    73  70  90 CALM      30.04R


$$

NCZ011>013-027>030-043-044-078>080-089-090>093-098-291000-
COASTAL PLAIN

CITY           SKY/WX    TMP DP  RH WIND       PRES   REMARKS
AHOSKIE        MOCLDY    71  70  96 N6        30.06S
CLINTON        NOT AVBL
ELIZABETHTOWN  CLEAR     71  66  84 SW3       30.04S
GOLDSBORO      PTCLDY    74  73  98 SW6       30.01S
GREENVILLE     PTCLDY    73  72  94 NE5       30.06R FOG
HAVELOCK       CLEAR     73  69  87 SW5       30.05R
KENANSVILLE    PTCLDY    69  67  92 CALM      30.04S
KINSTON        PTCLDY    73  69  86 S3        30.04S
NEW BERN       PTCLDY    74  69  85 SW5       30.04R
RICHLANDS      CLEAR     70  66  88 SW3       30.04S
ROANOKE RAPIDS NOT AVBL
ROCKY MOUNT    CLOUDY    75  72  90 NE9       30.05R FOG
WASHINGTON     MOCLDY    73  71  95 N7        30.05R
WHITEVILLE     CLEAR     70  67  90 CALM      30.04R

$$

AMZ130-135-150-152-154-156-158-170-250-252-270-ANZ085-086-088-633-658-670-291000-
MARINE OBSERVATIONS

STATION/POSITION TIME  TEMP    WIND        PRES    WAVE   SWELL
                       AIR SEA DIR/SP/G            HT/PER HT/PER
                 (UTC) (F)     (DEG/KT/KT) (MB)    (FT/S) (FT/S)
CHESAPEAKE LIGHT 0900   74      50/ 14/ 15 1019.0
BUOY 44014       0900   76 75   40/  8/ 10 1017.6    4/ 9   3/ 9
DUCK             0900   76 77   80/ 11/ 12 1016.8
2E DUCK          0900                        N/A     3/10   2/11
OREGON INLET     0900   77 80   50/  6/  9 1017.2
BUOY 44095       0900      77                N/A     4/10   2/11
20E OREGON INLET NOT AVBL
HATTERAS CG      0900   78 81  220/  3/  4 1017.5
DIAMOND BUOY     0900   80     220/  4/  6 1016.9    4/ 9   3/ 9
CAPE LOOKOUT     0900   79     240/  8/ 11 1016.9
BEAUFORT LAB     0900   78 80  250/  2/  4 1016.5
30 SE NEW RIVER  0900   80 81  240/ 10/ 12 1017.5    4/10   3/10
5 SE WRIGHTSVILL 0900   76 81  240/ 10/ 12   N/A
BUOY 41002       0803   80 82   CALM  /  2 1018.5    4/ 8   5/ 8
BUOY 41004       0900   82 83  160/  8/ 10 1016.5    3/ 9   3/ 9

$$



USA.gov is the U.S. government's official web portal to all federal, state and local government web resources and services.